TimePDT,TemperatureF,Dew PointF,Humidity,Sea Level PressureIn,VisibilityMPH,Wind Direction,Wind SpeedMPH,Gust SpeedMPH,PrecipitationIn,Events,Conditions,WindDirDegrees,DateUTC
12:53 AM,51.1,25.0,36,30.03,10.0,Variable,3.5,-,N/A,,Clear,0,2012-05-22 07:53:00
1:53 AM,48.9,26.1,41,30.04,10.0,SW,3.5,-,N/A,,Clear,220,2012-05-22 08:53:00
2:53 AM,50.0,28.9,44,30.02,10.0,South,15.0,25.3,N/A,,Clear,180,2012-05-22 09:53:00
3:53 AM,51.1,28.9,43,30.04,10.0,South,8.1,-,N/A,,Clear,190,2012-05-22 10:53:00
4:53 AM,45.0,30.0,56,30.06,10.0,Calm,Calm,-,N/A,,Clear,0,2012-05-22 11:53:00
5:53 AM,46.0,26.1,46,30.04,10.0,South,8.1,-,N/A,,Clear,190,2012-05-22 12:53:00
6:53 AM,48.9,28.0,44,30.05,10.0,South,4.6,-,N/A,,Clear,190,2012-05-22 13:53:00
7:53 AM,57.0,27.0,32,30.04,10.0,South,9.2,-,N/A,,Clear,180,2012-05-22 14:53:00
8:53 AM,60.1,27.0,28,30.04,10.0,South,17.3,24.2,N/A,,Clear,190,2012-05-22 15:53:00
9:53 AM,63.0,21.9,21,30.03,10.0,South,16.1,20.7,N/A,,Clear,180,2012-05-22 16:53:00
10:53 AM,64.9,14.0,14,30.03,10.0,South,16.1,25.3,N/A,,Clear,190,2012-05-22 17:53:00
11:53 AM,68.0,17.1,14,30.01,10.0,South,15.0,27.6,N/A,,Clear,190,2012-05-22 18:53:00
12:53 PM,66.9,25.0,21,30.00,10.0,SSW,8.1,25.3,N/A,,Clear,210,2012-05-22 19:53:00
1:53 PM,66.0,25.0,21,30.00,10.0,Variable,5.8,21.9,N/A,,Clear,0,2012-05-22 20:53:00
2:53 PM,64.9,26.1,23,30.01,10.0,Variable,6.9,20.7,N/A,,Clear,0,2012-05-22 21:53:00
3:53 PM,64.0,27.0,25,30.00,10.0,SSW,9.2,24.2,N/A,,Clear,210,2012-05-22 22:53:00
4:53 PM,62.1,28.9,29,30.02,10.0,Variable,6.9,-,N/A,,Clear,0,2012-05-22 23:53:00
5:53 PM,60.1,28.9,31,30.01,10.0,SSW,12.7,18.4,N/A,,Partly Cloudy,200,2012-05-23 00:53:00
6:53 PM,57.0,32.0,39,30.01,10.0,SSW,11.5,-,N/A,,Clear,200,2012-05-23 01:53:00
7:53 PM,53.1,30.9,43,30.00,10.0,SSW,11.5,-,N/A,,Clear,210,2012-05-23 02:53:00
8:53 PM,51.1,32.0,48,29.99,10.0,SSW,10.4,-,N/A,,Clear,210,2012-05-23 03:53:00
9:53 PM,50.0,28.0,43,29.99,10.0,SSW,8.1,-,N/A,,Clear,200,2012-05-23 04:53:00
10:53 PM,48.0,30.9,52,29.98,10.0,SSW,12.7,19.6,N/A,,Clear,200,2012-05-23 05:53:00
11:53 PM,45.0,30.0,56,29.98,10.0,Calm,Calm,-,N/A,,Clear,0,2012-05-23 06:53:00